Location: Newark
(34.4331°S, 150.8831°E)
Time: 14:24:56
(UTC+00:00)

Hubble Space Telescope - Visible Passes

Search period start: 18 September 2020 00:00
Search period end: 28 September 2020 00:00
Orbit: 536 x 540 km, 28.5° (Epoch: 17 September)

Date Brightness Start Highest point End Pass type
(mag) Time Alt. Az. Time Alt. Az. Time Alt. Az.
19 Sep 3.0 09:48:53 10° NW 09:50:02 16° NNW 09:50:02 16° NNW visible
20 Sep 2.5 09:37:54 10° NW 09:40:12 23° NNW 09:40:12 23° NNW visible
21 Sep 2.0 09:26:59 10° NW 09:30:19 29° N 09:30:19 29° N visible
22 Sep 1.7 09:16:06 10° NW 09:19:50 32° N 09:20:21 31° NNE visible
23 Sep 1.7 09:05:16 10° WNW 09:09:04 34° N 09:10:21 27° NE visible
24 Sep 1.7 08:54:27 10° WNW 08:58:17 35° N 09:00:19 22° NE visible
24 Sep 3.8 10:35:27 10° WNW 10:35:39 11° WNW 10:35:39 11° WNW visible
25 Sep 1.7 08:43:40 10° WNW 08:47:31 36° N 08:50:16 17° ENE visible
25 Sep 3.5 10:24:46 10° WNW 10:25:36 14° WNW 10:25:36 14° WNW visible
26 Sep 1.8 08:32:54 10° WNW 08:36:45 36° N 08:40:12 12° ENE visible
26 Sep 3.2 10:14:08 10° WNW 10:15:31 17° NW 10:15:31 17° NW visible
27 Sep 1.9 08:22:09 10° WNW 08:25:59 35° N 08:29:48 10° ENE visible
27 Sep 3.0 10:03:34 10° WNW 10:05:27 18° NW 10:05:27 18° NW visible
